Regional Weather Roundup
Issued by NWS

Home | Current Version | Previous Version | Graphics & Text | Print | Product List | Glossary On
Versions: 1 2 3 4 5 6 7 8 9 10 11 12 13 14 15 16 17 18 19 20 21 22 23 24 25 26 27 28 29 30 31 32 33 34 35 36 37 38 39 40 41 42 43 44 45 46 47 48 49 50
000
ASUS43 KLSX 090657
RWRMO

WEATHER SUMMARY FOR MISSOURI
NATIONAL WEATHER SERVICE SPRINGFIELD MO
100 AM CST FRI DEC 09 2016

NOTE: "FAIR" INDICATES FEW OR NO CLOUDS BELOW 12,000 FEET WITH NO
       SIGNIFICANT WEATHER AND/OR OBSTRUCTIONS TO VISIBILITY.
       CURRENT SKY AND/OR WEATHER CONDITIONS ARE NOT AVAILABLE FOR
       CHILLICOTHE AND FARMINGTON.

MOZ001>031-035>038-043-044-053-054-090800-
...NORTHERN AND WESTERN MISSOURI...

CITY           SKY/WX    TMP DP  RH WIND       PRES   REMARKS
KANSAS CTY INT CLEAR     15   7  70 NW5       30.64S WCI   8
LEE`S SUMMIT   CLEAR     17   9  70 NW6       30.64S WCI   9
ST JOSEPH      CLEAR     15   9  76 NE3       30.66S
CHILLICOTHE      N/A     17   8  67 NW3       30.64S

$$
MOZ066>068-077>081-088>096-101>105-090800-
...SOUTHWEST MISSOURI...

CITY           SKY/WX    TMP DP  RH WIND       PRES   REMARKS
SPRINGFIELD    CLEAR     15   9  76 NW5       30.60F WCI   8
JOPLIN         CLEAR     15  11  83 CALM      30.66F

$$
MOZ032>034-039>042-045>050-055>058-069>072-090800-
...CENTRAL MISSOURI...

CITY           SKY/WX    TMP DP  RH WIND       PRES   REMARKS
COLUMBIA       NOT AVBL
JEFFERSON CITY CLEAR     17  10  74 NW3       30.63F
ROLLA          CLEAR     16  11  80 NW8       30.56F WCI   5
SEDALIA        CLEAR     16  10  77 W6        30.63F WCI   7
WARRENSBURG    PTCLDY    18  10  73 W3        30.65S

$$
MOZ051-052-059>065-090800-
...EAST CENTRAL MISSOURI...

CITY           SKY/WX    TMP DP  RH WIND       PRES   REMARKS
ST LOUIS INTL  CLEAR     21  12  68 W9        30.59S WCI  11

$$
MOZ072>076-082>087-097>100-106>115-090800-
...SOUTH CENTRAL AND SOUTHEAST MISSOURI...

CITY           SKY/WX    TMP DP  RH WIND       PRES   REMARKS
CAPE GIRARDEAU CLEAR     23  13  65 NW7       30.60S WCI  15
POPLAR BLUFF   CLEAR     23  14  68 NW6       30.62S WCI  16
WEST PLAINS    CLEAR     19  12  74 N7        30.59S WCI  10

$$


USA.gov is the U.S. government's official web portal to all federal, state and local government web resources and services.